Weather History for 60230 - October, 2012

Change the Weather History Date:

Wednesday, October 10, 2012

  Actual Average Record
Temperature  
Mean Temperature 84 °F -  
Max Temperature 98 °F 77 °F - ()
Min Temperature 71 °F 55 °F - ()
Cooling Degree Days 20    
Growing Degree Days 34 (Base 50)    
Moisture  
Dew Point 53 °F    
Average Humidity 33    
Maximum Humidity 54    
Minimum Humidity 13    
Precipitation  
Precipitation 0.00 in 0.04 in - ()
Sea Level Pressure  
Sea Level Pressure 30.04 in    
Wind  
Wind Speed 5 mph ()    
Max Wind Speed 18 mph    
Max Gust Speed 28 mph    
Visibility 6.0 miles    
Events      
T = Trace of Precipitation, MM = Missing Value Source: Averaged Metar Reports

Daily Weather History Graph

Daily Weather History Graph

Search for Another Location

Airport or City:

Trip Planner

Search our weather history database for the weather conditions in past years. The results will help you decide how hot, cold, wet, or windy it might be!

Date:

Astronomy

Oct. 10, 2012 Rise Set
Actual Time 6:32 AM WET 6:05 PM WET
Civil Twilight 6:07 AM WET 6:29 PM WET
Nautical Twilight 5:39 AM WET 6:58 PM WET
Astronomical Twilight 5:11 AM WET 7:26 PM WET
Moon 1:13 AM WET (10/10) 2:43 PM WET (10/10)
Length of Visible Light 12h 22m
Length of Day
11h 33m
Waning Crescent, 29% of the Moon is Illuminated
Oct 10
Waning Crescent
Oct 15
New
Oct 22
First Quarter
Oct 29
Full
Nov 7
Last Quarter

Hourly Weather History & Observations

Time (WET) Temp. Heat Index Dew Point Humidity Pressure Visibility Wind Dir Wind Speed Gust Speed Precip Events Conditions
12:00 AM 80 °F - 55 °F 32% 29.99 in 6 mi Calm Calm - -   Partly Cloudy
12:00 AM 80.6 °F 80.5 °F 55.4 °F 42% 30.06 in 6.2 mi Calm Calm - N/A   Scattered Clouds
2:00 AM 77.0 °F - 59.0 °F 54% 30.06 in 5.0 mi West 9.2 mph - N/A   Scattered Clouds
2:30 AM 78.8 °F - 57.2 °F 47% 30.06 in 5.0 mi West 9.2 mph - N/A   Scattered Clouds
3:00 AM 84 °F - 52 °F 22% 29.95 in 6 mi SSW 15.0 mph - -   Partly Cloudy
3:00 AM 84.2 °F - 51.8 °F 33% 30.04 in 6.2 mi SSW 15.0 mph - N/A   Scattered Clouds
3:30 AM 82.4 °F - 51.8 °F 35% 30.04 in 6.2 mi SSW 11.5 mph - N/A   Scattered Clouds
4:00 AM 82.4 °F - 51.8 °F 35% 30.01 in 6.2 mi SSW 9.2 mph - N/A   Scattered Clouds
4:30 AM 78.8 °F - 51.8 °F 39% 30.04 in 6.2 mi Variable 2.3 mph - N/A   Scattered Clouds
5:00 AM 77.0 °F - 53.6 °F 44% 30.04 in 6.2 mi ESE 3.5 mph - N/A   Scattered Clouds
5:30 AM 77.0 °F - 53.6 °F 44% 30.04 in 6.2 mi Calm Calm - N/A   Scattered Clouds
6:00 AM 74 °F - 54 °F 39% 29.97 in 6 mi Calm Calm - -   Partly Cloudy
6:00 AM 75.2 °F - 53.6 °F 47% 30.04 in 6.2 mi Calm Calm - N/A   Scattered Clouds
6:30 AM 71.6 °F - 53.6 °F 53% 30.04 in 6.2 mi ESE 3.5 mph - N/A   Scattered Clouds
7:00 AM 73.4 °F - 53.6 °F 50% 30.04 in 6.2 mi Calm Calm - N/A   Scattered Clouds
7:30 AM 78.8 °F - 53.6 °F 42% 30.04 in 6.2 mi Calm Calm - N/A   Scattered Clouds
8:00 AM 80.6 °F 80.3 °F 53.6 °F 39% 30.06 in 6.2 mi Calm Calm - N/A   Scattered Clouds
8:30 AM 84.2 °F 82.8 °F 53.6 °F 35% 30.06 in 4.3 mi Calm Calm - N/A   Scattered Clouds
9:00 AM 87 °F - 55 °F 24% 29.99 in 6 mi SW 3.5 mph - -   Scattered Clouds
9:00 AM 86.0 °F 84.5 °F 55.4 °F 35% 30.09 in 6.2 mi SSW 3.5 mph - N/A   Scattered Clouds
9:30 AM 89.6 °F 88.1 °F 57.2 °F 33% 30.09 in 6.2 mi West 4.6 mph - N/A   Scattered Clouds
10:00 AM 89.6 °F 88.1 °F 57.2 °F 33% 30.09 in 6.2 mi Calm Calm - N/A   Mostly Cloudy
10:30 AM 89.6 °F 88.1 °F 57.2 °F 33% 30.09 in 6.2 mi Calm Calm - N/A   Mostly Cloudy
11:00 AM 91.4 °F 89.4 °F 55.4 °F 29% 30.09 in 6.2 mi Calm Calm - N/A   Mostly Cloudy
11:30 AM 95.0 °F - 51.8 °F 23% 30.09 in 6.2 mi Calm Calm - N/A   Mostly Cloudy
12:00 PM 96 °F - 53 °F 14% 29.95 in 6 mi NNW 3.5 mph - -   Scattered Clouds
12:00 PM 95.0 °F 92.7 °F 53.6 °F 25% 30.06 in 6.2 mi NNW 3.5 mph - N/A   Mostly Cloudy
12:30 PM 95.0 °F 92.7 °F 53.6 °F 25% 30.06 in 6.2 mi NW 3.5 mph - N/A   Mostly Cloudy
1:00 PM 95.0 °F - 50.0 °F 22% 30.04 in 6.2 mi NW 9.2 mph - N/A   Scattered Clouds
1:30 PM 96.8 °F - 51.8 °F 22% 30.04 in 6.2 mi NW 6.9 mph - N/A   Scattered Clouds
2:00 PM 96.8 °F - 51.8 °F 22% 30.01 in 6.2 mi NW 9.2 mph - N/A   Scattered Clouds
2:30 PM 96.8 °F - 50.0 °F 20% 30.01 in 6.2 mi NNW 4.6 mph - N/A   Scattered Clouds
3:00 PM 96 °F - 51 °F 13% 29.90 in 6 mi NNW 2.3 mph - -   Partly Cloudy
3:00 PM 96.8 °F - 50.0 °F 20% 30.01 in 6.2 mi NNW 4.6 mph - N/A   Scattered Clouds
3:30 PM 93.2 °F - 50.0 °F 23% 30.01 in 6.2 mi WNW 9.2 mph - N/A   Mostly Cloudy
4:00 PM 93.2 °F - 51.8 °F 24% 30.04 in 3.7 mi WSW 16.1 mph 27.6 mph N/A   Mostly Cloudy
4:30 PM 89.6 °F - 50.0 °F 26% 30.04 in 5.0 mi SSW 17.3 mph - N/A   Mostly Cloudy
5:00 PM 89.6 °F - 48.2 °F 24% 30.04 in 5.0 mi SSW 18.4 mph - N/A   Mostly Cloudy
5:30 PM 86.0 °F - 51.8 °F 31% 30.04 in 6.2 mi SSW 16.1 mph 27.6 mph N/A   Mostly Cloudy
6:00 PM 87 °F - 50 °F 18% 29.95 in 6 mi SSW 10.4 mph - -   Partly Cloudy
6:00 PM 87.8 °F - 50.0 °F 27% 30.04 in 6.2 mi SSW 10.4 mph - N/A   Mostly Cloudy
6:30 PM 86.0 °F - 50.0 °F 29% 30.06 in 6.2 mi Variable 2.3 mph - N/A   Mostly Cloudy
7:00 PM 84.2 °F - 50.0 °F 30% 30.06 in 6.2 mi Calm Calm - N/A   Mostly Cloudy
7:30 PM 84.2 °F - 51.8 °F 33% 30.06 in 6.2 mi Calm Calm - N/A   Scattered Clouds
8:00 PM 84.2 °F 82.8 °F 53.6 °F 35% 30.09 in 6.2 mi East 11.5 mph - N/A   Scattered Clouds
8:30 PM 82.4 °F 81.4 °F 53.6 °F 37% 30.09 in 6.2 mi ESE 8.1 mph - N/A   Scattered Clouds
9:00 PM 81 °F - 54 °F 28% 30.02 in 6 mi East 4.6 mph - -   Partly Cloudy
9:00 PM 80.6 °F 80.3 °F 53.6 °F 39% 30.09 in 6.2 mi East 4.6 mph - N/A   Scattered Clouds
9:30 PM 77.0 °F - 53.6 °F 44% 30.09 in 6.2 mi Calm Calm - N/A   Scattered Clouds
10:00 PM 77.0 °F - 53.6 °F 44% 30.09 in 6.2 mi Calm Calm - N/A   Scattered Clouds
10:30 PM 77.0 °F - 53.6 °F 44% 30.09 in 6.2 mi Calm Calm - N/A   Scattered Clouds
11:00 PM 77.0 °F - 57.2 °F 50% 30.09 in 5.6 mi Calm Calm - N/A   Unknown
11:30 PM 73.4 °F - 55.4 °F 53% 30.09 in 5.6 mi Calm Calm - N/A   Unknown